Location: Ferques
(50.8300°N, 1.7599°E)
Time: 20:52:31
(UTC+00:00)

Cosmos 2084 Rocket - Pass Details

Date: 19 May 2025
Orbit: 542 x 579 km, 62.8° (Epoch: 18 June)

Event Time Altitude Azimuth Distance (km) Brightness Sun altitude
Rises 21:53:30 0° 222° (SW) 2,780 6.7 -14.7°
Reaches altitude 10° 21:55:44 10° 222° (SW) 1,882 5.8 -14.9°
Maximum altitude 21:59:59 86° 137° (SE) 580 3.3 -15.2°
Drops below altitude 10° 22:04:14 10° 46° (NE) 1,875 6.3 -15.5°
Sets 22:06:27 0° 46° (NE) 2,769 7.2 -15.7°
